157P/Tritton (2022)

Japanese version
Home page
Updated on September 18, 2021

---------------------------------------------------------------------

* Profile

* Orbital Elements

Epoch 2022 Sept. 18.0 TT = JDT 2459840.5
T 2022 Sept.  9.79501 TT                                MPCW
q   1.5717815            (2000.0)            P               Q
n   0.14769844     Peri.  155.05745     +0.11928140     -0.97144795
a   3.5444765      Node   287.54847     +0.87104021     +0.20152567
e   0.5565547      Incl.   12.42125     +0.47650908     -0.12520493
P   6.67
From 1118 observations 2003 Oct. 6-2017 May 5, mean residual 0".8.
     Nongravitational parameters A1 = +0.56, A2 = +0.0218.

* Magnitudes Graph

        m1 = 13.0 + 5 log d + 10.0 log r

---------------------------------------------------------------------

The orbital elements are published on M.P.E.C. 2017-J52.
The magnitudes graphs are made with Comet for Windows.

---------------------------------------------------------------------

Copyright(C) Seiichi Yoshida (comet@aerith.net). All rights reserved.